TimeEDT,TemperatureF,Dew PointF,Humidity,Sea Level PressureIn,VisibilityMPH,Wind Direction,Wind SpeedMPH,Gust SpeedMPH,PrecipitationIn,Events,Conditions,WindDirDegrees,DateUTC
12:53 AM,81.0,75.0,82,29.99,10.0,East,9.2,-,N/A,,Mostly Cloudy,90,2013-08-07 04:53:00
1:53 AM,81.0,75.0,82,29.97,10.0,East,9.2,-,N/A,,Scattered Clouds,90,2013-08-07 05:53:00
2:53 AM,81.0,75.0,82,29.96,10.0,East,9.2,-,N/A,,Scattered Clouds,100,2013-08-07 06:53:00
3:53 AM,80.1,75.9,87,29.95,10.0,East,9.2,-,N/A,,Scattered Clouds,100,2013-08-07 07:53:00
4:53 AM,80.1,75.9,87,29.95,10.0,East,8.1,-,N/A,,Scattered Clouds,90,2013-08-07 08:53:00
5:53 AM,80.1,75.9,87,29.96,10.0,East,8.1,-,N/A,,Scattered Clouds,80,2013-08-07 09:53:00
6:53 AM,80.1,75.9,87,29.97,10.0,East,9.2,-,N/A,,Mostly Cloudy,80,2013-08-07 10:53:00
7:53 AM,81.0,75.0,82,29.99,10.0,ENE,6.9,-,N/A,,Mostly Cloudy,70,2013-08-07 11:53:00
8:53 AM,82.9,75.0,77,30.00,10.0,East,11.5,-,N/A,,Mostly Cloudy,80,2013-08-07 12:53:00
9:53 AM,84.0,75.0,74,30.01,10.0,East,9.2,-,N/A,,Mostly Cloudy,100,2013-08-07 13:53:00
10:53 AM,86.0,75.0,70,30.01,10.0,ESE,6.9,-,N/A,,Mostly Cloudy,120,2013-08-07 14:53:00
11:53 AM,87.1,73.9,65,30.01,10.0,East,10.4,-,N/A,,Mostly Cloudy,80,2013-08-07 15:53:00
12:53 PM,87.1,73.0,63,30.00,10.0,East,11.5,-,N/A,,Mostly Cloudy,80,2013-08-07 16:53:00
1:53 PM,88.0,73.0,61,30.01,10.0,East,13.8,-,N/A,,Mostly Cloudy,90,2013-08-07 17:53:00
2:53 PM,88.0,72.0,59,29.99,10.0,East,16.1,-,N/A,,Mostly Cloudy,80,2013-08-07 18:53:00
3:53 PM,88.0,73.0,61,29.97,10.0,East,12.7,-,N/A,,Mostly Cloudy,90,2013-08-07 19:53:00
4:53 PM,88.0,73.0,61,29.97,10.0,East,12.7,-,N/A,,Mostly Cloudy,90,2013-08-07 20:53:00
5:53 PM,87.1,73.0,63,29.95,10.0,East,13.8,-,N/A,,Mostly Cloudy,90,2013-08-07 21:53:00
6:53 PM,86.0,73.9,67,29.97,10.0,ENE,11.5,-,N/A,,Mostly Cloudy,70,2013-08-07 22:53:00
7:53 PM,82.9,73.9,74,29.98,10.0,East,12.7,-,N/A,,Mostly Cloudy,100,2013-08-07 23:53:00
8:53 PM,82.0,73.9,76,29.98,10.0,East,10.4,-,N/A,,Mostly Cloudy,90,2013-08-08 00:53:00
9:53 PM,82.0,75.0,79,29.99,10.0,East,5.8,-,N/A,,Scattered Clouds,80,2013-08-08 01:53:00
10:53 PM,81.0,75.9,85,30.01,10.0,ENE,5.8,-,N/A,,Scattered Clouds,70,2013-08-08 02:53:00
11:53 PM,81.0,75.9,85,30.01,10.0,East,5.8,-,N/A,,Scattered Clouds,100,2013-08-08 03:53:00